Torna al catalogo

AAC-HSI-SAT3

AttivoScienzaSSO
NORAD 58848·PAYLOAD·🇬🇧 United Kingdom

Lanciato Nov 11, 2023 da Vandenberg Space Force Base

Loading…

Prossimi Passaggi (prossime 24 ore)

TLE

AggiornatoSource: Space-Track

Epoca: Sep 14, 2026, 15:29 UTC

1 58848U 23174DH  26257.64569728  .00001743  00000-0  93598-4 0  9992
2 58848  97.3319 314.0587 0011894  61.5791 298.6640 15.16136701157455

Traccia AAC-HSI-SAT3 in tempo reale con AllMySat

Download on the App Store